This is the latest recevied weather packets stored in our database for station/object WA1TYB-13. If no packets are shown the sender has not sent any weather packets the latest 1 day(s).
| Time | Temp. | Humidity | Pressure | Rain* | Wind** | Luminosity | Snow |
|---|---|---|---|---|---|---|---|
| 1778040826 | 2.78° C | 61% | 1021.5 hPa | 0 mm | 1.34 m/s, 234° | 0 W/m² | - |
| 1778040523 | 3.33° C | 61% | 1021.6 hPa | 0 mm | 0.45 m/s, 85° | 0 W/m² | - |
| 1778040221 | 3.33° C | 60% | 1021.5 hPa | 0 mm | 0.45 m/s, 354° | 0 W/m² | - |
| 1778039917 | 3.89° C | 58% | 1021.6 hPa | 0 mm | 0.45 m/s, 44° | 0 W/m² | - |
| 1778039615 | 3.89° C | 58% | 1021.5 hPa | 0 mm | 1.34 m/s, 60° | 0 W/m² | - |
| 1778039311 | 3.33° C | 58% | 1021.7 hPa | 0 mm | 1.34 m/s, 13° | 0 W/m² | - |
| 1778039009 | 3.33° C | 57% | 1021.6 hPa | 0 mm | 0.89 m/s, 353° | 0 W/m² | - |
| 1778038706 | 3.89° C | 55% | 1021.5 hPa | 0 mm | 1.34 m/s, 22° | 0 W/m² | - |
| 1778038403 | 4.44° C | 54% | 1021.4 hPa | 0 mm | 1.34 m/s, 355° | 0 W/m² | - |
| 1778038099 | 4.44° C | 52% | 1021.5 hPa | 0 mm | 2.24 m/s, 336° | 0 W/m² | - |
| 1778037796 | 5° C | 51% | 1021.4 hPa | 0 mm | 1.79 m/s, 337° | 0 W/m² | - |
| 1778037493 | 5° C | 50% | 1021.3 hPa | 0 mm | 1.79 m/s, 347° | 0 W/m² | - |
| 1778037190 | 5° C | 50% | 1021.4 hPa | 0 mm | 1.79 m/s, 332° | 0 W/m² | - |
| 1778036897 | 5° C | 51% | 1021.3 hPa | 0 mm | 1.79 m/s, 303° | 0 W/m² | - |
| 1778036586 | 5° C | 51% | 1021.1 hPa | 0 mm | 1.79 m/s, 325° | 0 W/m² | - |
| 1778036282 | 4.44° C | 52% | 1021.1 hPa | 0 mm | 1.34 m/s, 289° | 0 W/m² | - |
| 1778035979 | 5° C | 51% | 1021.1 hPa | 0 mm | 1.34 m/s, 324° | 0 W/m² | - |
| 1778035676 | 5° C | 51% | 1020.9 hPa | 0 mm | 0.89 m/s, 301° | 0 W/m² | - |
| 1778035372 | 5° C | 50% | 1021.1 hPa | 0 mm | 2.24 m/s, 283° | 1 W/m² | - |
| 1778035068 | 5.56° C | 50% | 1020.8 hPa | 0 mm | 2.68 m/s, 303° | 3 W/m² | - |
| 1778034766 | 6.11° C | 48% | 1020.8 hPa | 0 mm | 1.79 m/s, 329° | 6 W/m² | - |
| 1778034462 | 6.11° C | 46% | 1020.7 hPa | 0 mm | 4.02 m/s, 328° | 8 W/m² | - |
| 1778034161 | 6.67° C | 45% | 1020.6 hPa | 0 mm | 3.13 m/s, 320° | 12 W/m² | - |
| 1778033858 | 6.67° C | 44% | 1020.6 hPa | 0 mm | 3.58 m/s, 27° | 17 W/m² | - |
| 1778033555 | 7.22° C | 42% | 1020.6 hPa | 0 mm | 3.58 m/s, 321° | 23 W/m² | - |
* Rain latest hour (hover to see other rain measurements)
** Current wind speed in m/s (hover to see current wind gust speed)